When you browse on this site, cookies collect data to enhance your experience and personalize the content and advertising you see.
Visit our Privacy Policy to learn more. By continuing to use the site, you agree to this use of cookies and data.
EN

Hourly Weather Zatec

Today, 3 July, Friday

Time Temperature Precipitation Wind Pressure Humidity
00:00 +17°C° 0 mm 3 mps 738 mmHg 85%
01:00 +17°C° 0 mm 3 mps 738 mmHg 88%
02:00 +16°C° 0 mm 3 mps 738 mmHg 88%
03:00 +16°C° 0 mm 3 mps 739 mmHg 89%
04:00 +16°C° 0 mm 3 mps 739 mmHg 89%
05:00 +16°C° 0 mm 3 mps 739 mmHg 86%
06:00 +17°C° 0 mm 3 mps 740 mmHg 83%
07:00 +18°C° 0 mm 3 mps 741 mmHg 79%
08:00 +19°C° 0.1 mm 3 mps 741 mmHg 72%
09:00 +20°C° 0.1 mm 3 mps 741 mmHg 65%
10:00 +21°C° 0.1 mm 3 mps 741 mmHg 58%
11:00 +22°C° 0.1 mm 3 mps 741 mmHg 57%
12:00 +22°C° 0.1 mm 3 mps 741 mmHg 55%
13:00 +24°C° 0 mm 3 mps 741 mmHg 54%
14:00 +24°C° 0.1 mm 3 mps 741 mmHg 55%
15:00 +24°C° 0.1 mm 2 mps 741 mmHg 56%
16:00 +24°C° 0.1 mm 2 mps 741 mmHg 58%
17:00 +23°C° 0.1 mm 2 mps 741 mmHg 62%
18:00 +21°C° 0.1 mm 2 mps 741 mmHg 67%
19:00 +22°C° 0.1 mm 1 mps 742 mmHg 72%
20:00 +20°C° 0 mm 1 mps 742 mmHg 75%
21:00 +18°C° 0 mm 1 mps 742 mmHg 79%
22:00 +15°C° 0 mm 0 mps 742 mmHg 83%
23:00 +15°C° 0 mm 1 mps 742 mmHg 83%

Tomorrow, 4 July, Saturday

Time Temperature Precipitation Wind Pressure Humidity
00:00 +15°C° 0 mm 1 mps 743 mmHg 84%
01:00 +15°C° 0 mm 1 mps 743 mmHg 84%
02:00 +14°C° 0 mm 1 mps 743 mmHg 85%
03:00 +14°C° 0 mm 1 mps 742 mmHg 85%
04:00 +14°C° 0 mm 1 mps 742 mmHg 86%
05:00 +15°C° 0 mm 2 mps 742 mmHg 81%
06:00 +17°C° 0 mm 2 mps 742 mmHg 77%
07:00 +18°C° 0 mm 2 mps 743 mmHg 73%
08:00 +20°C° 0 mm 3 mps 743 mmHg 68%
09:00 +21°C° 0 mm 3 mps 743 mmHg 63%
10:00 +23°C° 0 mm 4 mps 743 mmHg 57%
11:00 +23°C° 0 mm 4 mps 743 mmHg 56%
12:00 +25°C° 0 mm 4 mps 742 mmHg 54%
13:00 +26°C° 0 mm 4 mps 742 mmHg 53%
14:00 +26°C° 0 mm 4 mps 742 mmHg 52%
15:00 +26°C° 0 mm 4 mps 742 mmHg 52%
16:00 +26°C° 0 mm 4 mps 741 mmHg 52%
17:00 +25°C° 0 mm 4 mps 741 mmHg 58%
18:00 +23°C° 0 mm 4 mps 741 mmHg 63%
19:00 +22°C° 0 mm 3 mps 741 mmHg 69%
20:00 +21°C° 0 mm 3 mps 741 mmHg 70%
21:00 +20°C° 0 mm 3 mps 741 mmHg 71%
22:00 +18°C° 0 mm 3 mps 741 mmHg 73%
23:00 +18°C° 0 mm 3 mps 741 mmHg 74%

Day after tomorrow, 5 July, Sunday

Time Temperature Precipitation Wind Pressure Humidity
00:00 +18°C° 0 mm 3 mps 742 mmHg 75%
01:00 +17°C° 0 mm 2 mps 742 mmHg 76%
02:00 +17°C° 0 mm 3 mps 741 mmHg 78%
03:00 +17°C° 0 mm 3 mps 741 mmHg 79%
04:00 +17°C° 0 mm 3 mps 741 mmHg 81%
05:00 +18°C° 0 mm 3 mps 741 mmHg 81%
06:00 +18°C° 0 mm 3 mps 741 mmHg 80%
07:00 +19°C° 0 mm 4 mps 741 mmHg 80%
08:00 +20°C° 0 mm 4 mps 741 mmHg 77%
09:00 +22°C° 0 mm 4 mps 741 mmHg 73%
10:00 +23°C° 0 mm 5 mps 741 mmHg 70%
11:00 +23°C° 0 mm 5 mps 741 mmHg 71%
12:00 +22°C° 0 mm 6 mps 740 mmHg 72%
13:00 +22°C° 0 mm 6 mps 740 mmHg 73%
14:00 +23°C° 0 mm 6 mps 740 mmHg 71%
15:00 +23°C° 0 mm 6 mps 740 mmHg 68%
16:00 +24°C° 0 mm 6 mps 739 mmHg 66%
17:00 +25°C° 0 mm 5 mps 739 mmHg 69%
18:00 +23°C° 0 mm 4 mps 739 mmHg 73%
19:00 +24°C° 0 mm 3 mps 739 mmHg 77%
20:00 +21°C° 0 mm 3 mps 739 mmHg 81%
21:00 +20°C° 0 mm 3 mps 739 mmHg 85%
22:00 +18°C° 0 mm 3 mps 739 mmHg 88%
23:00 +18°C° 0 mm 3 mps 739 mmHg 90%

6 July, Monday

Time Temperature Precipitation Wind Pressure Humidity
00:00 +18°C° 0 mm 3 mps 738 mmHg 91%
01:00 +17°C° 0 mm 3 mps 738 mmHg 92%
02:00 +17°C° 0 mm 3 mps 738 mmHg 93%
03:00 +17°C° 0 mm 3 mps 738 mmHg 93%
04:00 +17°C° 0 mm 3 mps 737 mmHg 94%
05:00 +18°C° 0 mm 4 mps 737 mmHg 89%
06:00 +19°C° 0 mm 4 mps 738 mmHg 84%
07:00 +20°C° 0 mm 5 mps 738 mmHg 79%
08:00 +21°C° 0.1 mm 5 mps 738 mmHg 77%
09:00 +21°C° 0.1 mm 5 mps 738 mmHg 74%
10:00 +21°C° 0.1 mm 6 mps 738 mmHg 71%
11:00 +22°C° 0.1 mm 6 mps 738 mmHg 63%
12:00 +23°C° 0.1 mm 7 mps 738 mmHg 55%
13:00 +23°C° 0.1 mm 7 mps 738 mmHg 47%
14:00 +23°C° 0 mm 7 mps 738 mmHg 47%
15:00 +22°C° 0 mm 7 mps 739 mmHg 47%
16:00 +21°C° 0 mm 7 mps 739 mmHg 48%
17:00 +20°C° 0 mm 6 mps 739 mmHg 52%
18:00 +19°C° 0 mm 5 mps 740 mmHg 57%
19:00 +18°C° 0 mm 4 mps 740 mmHg 62%
20:00 +15°C° 0 mm 4 mps 741 mmHg 66%
21:00 +14°C° 0 mm 3 mps 741 mmHg 70%
22:00 +12°C° 0 mm 3 mps 742 mmHg 74%
23:00 +12°C° 0 mm 3 mps 742 mmHg 77%

7 July, Tuesday

Time Temperature Precipitation Wind Pressure Humidity
00:00 +12°C° 0 mm 3 mps 742 mmHg 80%
01:00 +11°C° 0 mm 3 mps 742 mmHg 82%
02:00 +11°C° 0 mm 3 mps 743 mmHg 85%
03:00 +10°C° 0 mm 2 mps 743 mmHg 87%
04:00 +9°C° 0 mm 2 mps 743 mmHg 90%
05:00 +12°C° 0 mm 2 mps 743 mmHg 85%
06:00 +12°C° 0 mm 3 mps 743 mmHg 80%
07:00 +13°C° 0 mm 3 mps 744 mmHg 76%
08:00 +14°C° 0 mm 3 mps 744 mmHg 72%
09:00 +16°C° 0 mm 3 mps 744 mmHg 68%
10:00 +16°C° 0 mm 2 mps 744 mmHg 63%
11:00 +17°C° 0 mm 2 mps 744 mmHg 61%
12:00 +18°C° 0 mm 2 mps 743 mmHg 58%
13:00 +19°C° 0 mm 2 mps 743 mmHg 55%
14:00 +19°C° 0 mm 2 mps 743 mmHg 54%
15:00 +19°C° 0 mm 2 mps 743 mmHg 53%
16:00 +20°C° 0 mm 2 mps 743 mmHg 52%
17:00 +19°C° 0 mm 2 mps 743 mmHg 57%
18:00 +18°C° 0 mm 2 mps 743 mmHg 62%
19:00 +17°C° 0 mm 2 mps 743 mmHg 67%
20:00 +15°C° 0 mm 1 mps 743 mmHg 72%
21:00 +14°C° 0 mm 1 mps 743 mmHg 77%
22:00 +12°C° 0 mm 1 mps 743 mmHg 82%
23:00 +12°C° 0 mm 1 mps 743 mmHg 82%

8 July, Wednesday

Time Temperature Precipitation Wind Pressure Humidity
00:00 +12°C° 0 mm 1 mps 743 mmHg 81%
01:00 +11°C° 0 mm 1 mps 743 mmHg 81%
02:00 +11°C° 0 mm 1 mps 743 mmHg 82%
03:00 +11°C° 0 mm 1 mps 743 mmHg 83%
04:00 +10°C° 0 mm 1 mps 743 mmHg 84%
05:00 +12°C° 0 mm 1 mps 744 mmHg 79%
06:00 +14°C° 0 mm 1 mps 744 mmHg 74%
07:00 +16°C° 0 mm 1 mps 744 mmHg 69%
08:00 +18°C° 0 mm 1 mps 744 mmHg 65%
09:00 +19°C° 0 mm 1 mps 744 mmHg 61%
10:00 +21°C° 0 mm 1 mps 745 mmHg 56%
11:00 +21°C° 0 mm 1 mps 744 mmHg 54%
12:00 +21°C° 0 mm 2 mps 744 mmHg 52%
13:00 +21°C° 0 mm 2 mps 744 mmHg 50%
14:00 +21°C° 0 mm 2 mps 744 mmHg 51%
15:00 +21°C° 0 mm 2 mps 744 mmHg 51%
16:00 +21°C° 0 mm 2 mps 743 mmHg 51%
17:00 +22°C° 0 mm 1 mps 743 mmHg 56%
18:00 +21°C° 0 mm 1 mps 743 mmHg 61%
19:00 +19°C° 0 mm 0 mps 743 mmHg 65%
20:00 +17°C° 0 mm 0 mps 743 mmHg 69%
21:00 +15°C° 0 mm 0 mps 743 mmHg 73%
22:00 +14°C° 0 mm 0 mps 743 mmHg 77%
23:00 +14°C° 0 mm 1 mps 743 mmHg 79%
Show more